Regional Weather Roundup
Issued by NWS

Home | Current Version | Previous Version | Graphics & Text | Print | Product List | Glossary Off
Versions: 1 2 3 4 5 6 7 8 9 10 11 12 13 14 15 16 17 18 19 20 21 22 23 24 25 26 27 28 29 30 31 32 33 34 35 36 37 38 39 40 41 42 43 44 45 46 47 48 49 50

000
ASUS43 KDMX 060306
RWRIA

WEATHER ROUNDUP FOR IOWA
NATIONAL WEATHER SERVICE DES MOINES IA
900 PM CST MON DEC 05 2016

NOTE: "FAIR" INDICATES FEW OR NO CLOUDS BELOW 12,000 FEET WITH NO
SIGNIFICANT WEATHER AND/OR OBSTRUCTIONS TO VISIBILITY.

* - THESE STATIONS ARE NOT NWS STATIONS...THUS NOT UNDER NWS
QUALITY CONTROL.  THEY ALSO DO NOT REPORT WEATHER SUCH
AS PRECIPITATION OR FOG.

IAZ001>003-012>014-020>022-031>034-043>046-060400-
   NORTHWEST IOWA

CITY           SKY/WX    TMP DP  RH WIND       PRES   REMARKS
CARROLL *      CLOUDY    41  37  87 S8        29.72S
CHEROKEE *     CLOUDY    35  30  82 W17       29.76R WCI  25
DENISON *      CLOUDY    39  34  81 NW20G26   29.74R WCI  30
LE MARS *      CLOUDY    34  27  75 NW17G25   29.79R WCI  23
ORANGE CITY *  CLOUDY    34  30  86 W20G28    29.74R WCI  22
SHELDON *      CLOUDY    32  30  93 W22G30    29.71R WCI  19
SIOUX CITY     CLOUDY    36  28  73 NW17G28   29.78S WCI  26
SPENCER        CLOUDY    36  31  82 W23G33    29.72R WCI  24
STORM LAKE *   CLOUDY    36  32  87 W24       29.74R WCI  24
$$

IAZ055>058-069>071-079>083-090>094-060400-
   SOUTHWEST IOWA

CITY           SKY/WX    TMP DP  RH WIND       PRES   REMARKS
ATLANTIC *     CLOUDY    41  36  81 SW5       29.73S
AUDUBON *      CLOUDY    41  36  81 CALM      29.73F
CLARINDA *       N/A     34  34 100 CALM      29.76S
COUNCIL BLFS * CLOUDY    41  39  93 W7        29.74R
CRESTON *      MOCLDY    37  36  93 S10       29.75F WCI  30
HARLAN  *      CLOUDY    41  37  87 SW9       29.76R
LAMONI         CLEAR     36  33  89 SE6       29.76R WCI  31
RED OAK *      CLOUDY    39  36  87 CALM      29.73F
SHENANDOAH *   CLOUDY    41  36  81 CALM      29.74S
$$

IAZ047>049-059>061-072>074-084-060400-
   CENTRAL IOWA

CITY           SKY/WX    TMP DP  RH WIND       PRES   REMARKS
AMES           CLOUDY    37  36  96 SE9       29.76R WCI  30
ANKENY *       CLOUDY    37 N/A N/A S10       29.78S WCI  30
BOONE *        CLOUDY    37  36  93 S8        29.74S WCI  31
CHARITON *       N/A     37  36  93 S12       29.77R WCI  30
DES MOINES     CLOUDY    38  35  89 SE9       29.77S WCI  31
GRINNELL*      CLOUDY    34  33  95 S9        29.81R FOG     WCI  27
KNOXVILLE *    CLOUDY    37  36  93 SE10      29.77R WCI  30
MARSHALLTOWN   CLOUDY    34  33  96 SE17      29.78R FOG     WCI  23
NEWTON *       CLOUDY    36  34  93 S16       29.78S WCI  26
PELLA *        CLOUDY    36  34  92 SE9       29.81R WCI  29
PERRY *        CLOUDY    40  38  95 SE6       29.75R
$$

IAZ004>006-015-016-023>025-035-036-060400-
   NORTH CENTRAL IOWA

CITY           SKY/WX    TMP DP  RH WIND       PRES   REMARKS
ALGONA *       CLOUDY    41  39  93 S17       29.69R
CLARION *      CLOUDY    37  37 100 S16       29.72F WCI  28
ESTHERVILLE    CLOUDY    36  32  85 W17G29    29.69R WCI  26
FORT DODGE *   CLOUDY    41  34  75 S15G24    29.72S
MASON CITY     CLOUDY    34  33  96 S16       29.74S WCI  24
FOREST CITY *  CLOUDY    36  36 100 S17       29.71S WCI  25
WEBSTER CITY * CLOUDY    39  37  93 S13       29.72S WCI  32
IOWA FALLS *   CLOUDY    35  34  94 SE16      29.76S WCI  25
$$

IAZ007>011-017>019-026>030-037>042-050>054-066-060400-
   NORTHEAST IOWA

CITY           SKY/WX    TMP DP  RH WIND       PRES   REMARKS
CEDAR RAPIDS   CLOUDY    32  32 100 SE12      29.83S FOG     WCI  23
CHARLES CITY * CLOUDY    34  34 100 S14       29.77R FOG     WCI  24
DECORAH *      CLOUDY    32  30  93 S13       29.77F FOG     WCI  22
DUBUQUE        LGT SNOW  31  30  96 SE17      29.84F FOG     WCI  19
MONTICELLO *   CLOUDY    32  32 100 SE14G21   29.84S FOG     WCI  22
OELWEIN *      CLOUDY    32  32 100 S18G29    29.80S FOG     WCI  20
WATERLOO       CLOUDY    33  31  92 SE17      29.79R FOG     WCI  22
$$

IAZ064-065-067-068-078-060400-
   EAST CENTRAL IOWA

CITY           SKY/WX    TMP DP  RH WIND       PRES   REMARKS
DAVENPORT      CLOUDY    32  30  92 SE15      29.89R WCI  22
IOWA CITY      CLOUDY    34  32  92 SE13      29.86F WCI  25
MUSCATINE *    CLOUDY    36  32  87 SE10      29.88S WCI  28
QUAD CITIES    CLOUDY    34  30  85 E12       29.89F WCI  25
$$

IAZ062-063-075>077-085>089-095>099-060400-
   SOUTHEAST IOWA

CITY           SKY/WX    TMP DP  RH WIND       PRES   REMARKS
BURLINGTON     CLOUDY    35  34  96 SE10      29.85F WCI  27
FAIRFIELD *    CLOUDY    37  36  93 SE10      29.82F WCI  30
FORT MADISON * CLOUDY    36  34  93 SE12      29.85F WCI  27
KEOKUK *       CLOUDY    36  34  93 E9        29.85S FOG     WCI  29
OSKALOOSA *    CLOUDY    36  34  95 SE20      29.80F FOG     WCI  25
CENTERVILLE *  CLOUDY    36  36 100 SE15      29.79F WCI  26
OTTUMWA        CLOUDY    37  33  85 SE15G24   29.80F WCI  28
WASHINGTON *   CLOUDY    36  34  93 SE15      29.85S WCI  26
$$

ABBREVIATIONS USED IN REMARKS
   TC - TEMPERATURES IN CELSIUS
  WCI - WIND CHILL INDEX
   HX - HEAT INDEX
  VSB - VISIBILITY
$$




USA.gov is the U.S. government's official web portal to all federal, state and local government web resources and services.